User: anonymous   Login
Location: Oshawa
(43.9000°N, 78.8670°W)
Time: 08:43:29
(UTC-05:00)
Language:

CZ-4C R/B - Orbit

View from above orbital plane
View from above orbital plane
View from above satellite
View from above satellite

Ground track
Ground track

The orbit data is extracted from the following two-line orbital elements,

1 32290U 07055B   16345.84351705  .00003081  00000-0  89845-4 0  9995
2 32290  97.5273  82.6138 0070431  83.6224 277.3033 15.33705734502942
Epoch (UTC): 10 December 2016 20:14:39
Eccentricity: 0.0070431
inclination: 97.5273°
perigee height: 416 km
apogee height: 513 km
right ascension of ascending node: 82.6138°
argument of perigee: 83.6224°
revolutions per day: 15.33705734
mean anomaly at epoch: 277.3033°
orbit number at epoch: 50294

The dashed part of the orbit path shows where the satellite is in the earth's shadow,  

DLR